Regional Weather Roundup
Issued by NWS

Home | Current Version | Previous Version | Graphics & Text | Print | Product List | Glossary On
Versions: 1 2 3 4 5 6 7 8 9 10 11 12 13 14 15 16 17 18 19 20 21 22 23 24 25 26 27 28 29 30 31 32 33 34 35 36 37 38 39 40 41 42 43 44 45 46 47 48 49 50
000
ASUS43 KIND 190709
RWRIN

WEATHER ROUNDUP FOR INDIANA
NATIONAL WEATHER SERVICE INDIANAPOLIS IN
300 AM EDT SUN APR 19 2015

NOTE: "FAIR" INDICATES FEW OR NO CLOUDS BELOW 12,000 FEET WITH NO
SIGNIFICANT WEATHER AND/OR OBSTRUCTIONS TO VISIBILITY.

* - STATION DOES NOT REPORT WEATHER SUCH AS PRECIPITATION OR FOG.

+ - STATION NOT QUALITY CONTROLLED BY THE NATIONAL WEATHER SERVICE.
    USE DATA WITH CAUTION...ESPECIALLY DEWPOINT AND RELATIVE
    HUMIDITY OBSERVATIONS.

INZ001>003-010>013-019-020-190800-
NORTHWEST INDIANA

CITY           SKY/WX    TMP DP  RH WIND       PRES   REMARKS
GARY /AIRPORT/ MOCLDY    59  11  15 E10G18    29.94F
KNOX *+        MOCLDY    55  -6   8 E14G22    29.95F
MICHIGAN CITY+ MOCLDY    55  19  24 E9        29.97F
MONTICELLO +   MOCLDY    55  38  51 E8        29.93F
RENSSELAER +   MOCLDY    55  36  47 E12       29.93F
VALPARAISO     MOCLDY    54  26  34 E12       29.96F

$$

LMZ046-743>745-190800-
SOUTHERN LAKE MICHIGAN

STATION/POSITION TIME  TEMP WIND        PRES
                       AIR  DIR/SP/G
                 (UTC) (F)  (DEG/KT/KT) (MB)
BURNS HARBOR     0700   58  120/ 17/ 24 1014.6S
MICHIGAN CITY    0700   57   80/ 15/ 19   N/A
4NW MICH CITY    0700   54  130/ 14/ 21   N/A

$$

INZ004-005-014>016-021>024-190800-
NORTH CENTRAL INDIANA

CITY           SKY/WX    TMP DP  RH WIND       PRES   REMARKS
GOSHEN         CLOUDY    52  32  46 E13       29.99F
LOGANSPORT +   PTCLDY    52  36  54 E13       29.95F
ROCHESTER +    MOCLDY    55  34  44 E13       29.97F
SOUTH BEND     MOCLDY    57  25  29 E15       30.00F
WARSAW +       MOCLDY    52  34  50 E9G17     29.99F

$$

INZ006>009-017-018-025>027-190800-
NORTHEAST INDIANA

CITY           SKY/WX    TMP DP  RH WIND       PRES   REMARKS
ANGOLA *+      CLEAR     52  30  43 E10       30.02F
AUBURN +       CLOUDY    50  32  50 E14       30.02F
FORT WAYNE     MOCLDY    50  37  61 E15       30.00F
HUNTINGTON +   CLOUDY    50  34  54 E9        29.98F

$$

INZ028-029-035-036-043>045-051>053-190800-
WEST CENTRAL INDIANA

CITY           SKY/WX    TMP DP  RH WIND       PRES   REMARKS
CRAWFORDSVL +  MOCLDY    57  44  61 E10       29.89F
GREENCASTLE +  CLOUDY    61  45  55 E8        29.89F
LAFAYETTE      MOCLDY    57  41  55 E12       29.91F
TERRE HAUTE    CLOUDY    63  48  58 E7        29.85F

$$

INZ030>032-037>040-046>048-054>057-064-065-190800-
CENTRAL INDIANA

CITY           SKY/WX    TMP DP  RH WIND       PRES   REMARKS
CP ATTERBURY + CLOUDY    59  48  67 E6        29.90F
FISHERS *+     CLOUDY    57  48  72 NE5       29.92F
FRANKFORT +    MOCLDY    56  43  61 NE15G21   29.94F
GREENWOOD *+   CLOUDY    63  46  55 E9        29.90F
INDIANAPOLIS   CLOUDY    63  49  60 E12       29.89F
-EAGLE CREEK   CLOUDY    62  48  60 NE8       29.90F
KOKOMO *+      MOCLDY    54  37  54 E14       29.95F
MARION +       MOCLDY    53  36  51 E13       29.96F
MT COMFORT *+  MOCLDY    57  43  58 NE8       29.92F
SHELBYVILLE    CLOUDY    62  50  64 E9        29.90F
ZIONSVILLE +   CLOUDY    59  44  58 E9        29.93F

$$

INZ033-034-041-042-049-050-058-059-190800-
EAST CENTRAL INDIANA

CITY           SKY/WX    TMP DP  RH WIND       PRES   REMARKS
MUNCIE         CLOUDY    54  40  59 E9        29.96F

$$

INZ060-061-067>069-081>083-085>088-190800-
SOUTHWEST INDIANA

CITY           SKY/WX    TMP DP  RH WIND       PRES   REMARKS
EVANSVILLE     CLOUDY    67  51  56 CALM      29.82F
HUNTINGBURG *+ CLOUDY    68  46  45 E12       29.82F
WASHINGTON +   CLOUDY    63  46  54 E6        29.83F

$$

INZ062-063-066-070>080-084-089>092-190800-
SOUTH CENTRAL AND SOUTHEAST INDIANA

CITY           SKY/WX    TMP DP  RH WIND       PRES   REMARKS
BEDFORD +      MOCLDY    66  45  45 E9        29.85F
BLOOMINGTON    MOCLDY    64  46  52 E6        29.87F
MADISON *+     CLOUDY    64  39  39 E7        29.90F
NORTH VERNON + CLOUDY    66  43  42 E9        29.89F

$$




USA.gov is the U.S. government's official web portal to all federal, state and local government web resources and services.